K0OHU-1 Weather Reports


Display with metric or nautical units.
time (UTC)temp
F
wind
direction
speed
MPH
gust
MPH
rain 1hr
in
rain 24hr
in
rain mn
in
humidity
%
barometer
mb
20141020084727 41 78 0.0 0.0 0.00 0.00 0.00 82 1020.5
20141020083226 41 78 0.0 0.0 0.00 0.00 0.00 81 1020.6
20141020081716 42 78 0.0 0.0 0.00 0.00 0.00 81 1020.6
20141020080224 42 78 0.0 0.0 0.00 0.00 0.00 80 1020.6
20141020074730 43 78 0.0 0.0 0.00 0.00 0.00 79 1020.4
20141020073224 43 78 0.0 0.0 0.00 0.00 0.00 78 1020.4
20141020071730 44 78 0.0 0.0 0.00 0.00 0.00 78 1020.3
20141020070220 44 78 0.0 0.0 0.00 0.00 0.00 77 1020.5
20141020064729 45 78 0.0 0.0 0.00 0.00 0.00 76 1021.0
20141020063218 45 78 0.0 0.0 0.00 0.00 0.00 74 1020.9
20141020061723 46 78 0.0 0.0 0.00 0.00 0.00 73 1020.0
20141020060216 46 78 0.0 0.0 0.00 0.00 0.00 72 1020.0
20141020054721 47 78 0.0 0.0 0.00 0.00 0.00 71 1019.9
20141020053230 47 78 0.0 0.0 0.00 0.00 0.00 71 1019.9
20141020051730 47 78 0.0 0.0 0.00 0.00 0.00 71 1020.0
20141020050229 47 78 0.0 0.0 0.00 0.00 0.00 70 1020.3
20141020044734 48 78 0.0 0.0 0.00 0.00 0.00 70 1020.3
20141020043226 48 78 0.0 0.0 0.00 0.00 0.00 69 1020.3
20141020041721 48 78 0.0 0.0 0.00 0.00 0.00 69 1020.2
20141020040220 48 78 0.0 0.0 0.00 0.00 0.00 68 1019.8
20141020034726 48 78 0.0 0.0 0.00 0.00 0.00 66 1020.3
20141020033219 49 78 0.0 0.0 0.00 0.00 0.00 66 1020.2
20141020031724 49 78 0.0 0.0 0.00 0.00 0.00 65 1020.1
20141020030235 50 78 0.0 0.0 0.00 0.00 0.00 63 1019.9
20141020024725 51 78 0.0 0.0 0.00 0.00 0.00 61 1019.7
20141020023235 52 78 0.0 0.0 0.00 0.00 0.00 61 1020.1
20141020021721 52 78 0.0 0.0 0.00 0.00 0.00 59 1019.9
20141020020235 53 78 0.0 0.0 0.00 0.00 0.00 58 1019.4
20141020014721 55 78 0.0 0.0 0.00 0.00 0.00 57 1019.8
20141020013231 56 78 0.0 0.0 0.00 0.00 0.00 55 1019.5
20141020011721 57 78 0.0 0.0 0.00 0.00 0.00 53 1018.9
20141020010232 59 78 0.0 0.0 0.00 0.00 0.00 50 1018.7
20141020004721 60 78 0.0 0.0 0.00 0.00 0.00 47 1018.5
20141020003230 61 78 0.0 0.0 0.00 0.00 0.00 44 1019.0
20141020001736 63 78 0.0 0.0 0.00 0.00 0.00 41 1018.4
20141020000228 66 78 0.0 0.0 0.00 0.00 0.00 38 1018.3
20141019234734 67 78 0.0 0.0 0.00 0.00 0.00 34 1018.1
20141019233223 68 78 0.0 0.0 0.00 0.00 0.00 32 1017.6
20141019231732 69 78 0.0 0.0 0.00 0.00 0.00 32 1017.5
20141019230221 70 78 0.0 0.0 0.00 0.00 0.00 30 1017.9
20141019224726 72 78 0.0 2.0 0.00 0.00 0.00 28 1017.5
20141019223219 72 78 0.0 2.0 0.00 0.00 0.00 30 1017.5
20141019221724 73 78 0.0 1.0 0.00 0.00 0.00 29 1017.9
20141019220234 73 83 0.0 3.0 0.00 0.00 0.00 27 1017.8
20141019214723 74 80 0.0 2.0 0.00 0.00 0.00 27 1017.6
20141019213232 75 79 0.0 2.0 0.00 0.00 0.00 27 1017.6
20141019211717 75 100 0.0 5.0 0.00 0.00 0.00 26 1017.5
20141019210230 75 82 0.0 1.0 0.00 0.00 0.00 27 1017.6
20141019204734 76 84 0.0 1.0 0.00 0.00 0.00 26 1018.0
20141019203225 76 116 0.0 2.0 0.00 0.00 0.00 25 1018.1
20141019201736 76 73 0.0 1.0 0.00 0.00 0.00 26 1018.2
20141019200225 75 73 0.0 4.0 0.00 0.00 0.00 25 1017.8
20141019194721 76 76 0.0 4.0 0.00 0.00 0.00 25 1018.5
20141019193220 76 56 0.0 1.0 0.00 0.00 0.00 25 1018.6
20141019191730 75 55 0.0 5.0 0.00 0.00 0.00 26 1018.3
20141019190219 75 48 0.0 4.0 0.00 0.00 0.00 27 1019.1
20141019184726 75 88 0.0 1.0 0.00 0.00 0.00 26 1019.2
20141019183220 75 88 0.0 5.0 0.00 0.00 0.00 26 1019.3
20141019181725 74 75 0.0 4.0 0.00 0.00 0.00 27 1019.2
20141019180234 74 77 0.0 2.0 0.00 0.00 0.00 29 1019.7
20141019174725 73 76 0.0 4.0 0.00 0.00 0.00 31 1019.2
20141019173234 72 79 0.0 4.0 0.00 0.00 0.00 37 1019.0
20141019171724 70 79 0.0 1.0 0.00 0.00 0.00 38 1019.5
20141019170235 67 79 0.0 0.0 0.00 0.00 0.00 48 1019.6
20141019164720 64 79 0.0 0.0 0.00 0.00 0.00 54 1019.2
20141019163233 61 79 0.0 0.0 0.00 0.00 0.00 55 1019.1
20141019161737 58 79 0.0 0.0 0.00 0.00 0.00 63 1019.5
20141019160234 55 79 0.0 0.0 0.00 0.00 0.00 66 1019.2
20141019154745 53 79 0.0 0.0 0.00 0.00 0.00 70 1019.7
20141019153252 50 79 0.0 0.0 0.00 0.00 0.00 76 1019.2
20141019151738 48 79 0.0 0.0 0.00 0.00 0.00 80 1019.5
20141019150251 46 79 0.0 0.0 0.00 0.00 0.00 84 1019.4
20141019144737 43 79 0.0 0.0 0.00 0.00 0.00 87 1019.0
20141019143246 42 79 0.0 0.0 0.00 0.00 0.00 89 1019.3
20141019141734 40 79 0.0 0.0 0.00 0.00 0.00 90 1018.7
20141019140243 39 79 0.0 0.0 0.00 0.00 0.00 90 1019.1
20141019134749 38 79 0.0 0.0 0.00 0.00 0.00 90 1019.1
20141019133244 37 79 0.0 0.0 0.00 0.00 0.00 89 1018.5
20141019131750 37 79 0.0 0.0 0.00 0.00 0.00 89 1018.3
20141019130238 37 79 0.0 0.0 0.00 0.00 0.00 89 1018.3
20141019124747 37 79 0.0 0.0 0.00 0.00 0.00 88 1018.2
20141019123237 38 79 0.0 0.0 0.00 0.00 0.00 88 1018.5
20141019121742 38 79 0.0 0.0 0.00 0.00 0.00 87 1018.5
20141019120235 38 79 0.0 0.0 0.00 0.00 0.00 88 1018.0
20141019114740 38 79 0.0 0.0 0.00 0.00 0.00 87 1018.0
20141019113249 39 79 0.0 0.0 0.00 0.00 0.00 86 1017.5
20141019111739 39 79 0.0 0.0 0.00 0.00 0.00 86 1017.6
20141019110249 39 79 0.0 0.0 0.00 0.00 0.00 86 1017.4
20141019104737 39 79 0.0 0.0 0.00 0.00 0.00 85 1017.4
20141019103250 40 79 0.0 0.0 0.00 0.00 0.00 85 1017.8
20141019101737 40 79 0.0 0.0 0.00 0.00 0.00 84 1017.8
20141019100247 40 79 0.0 0.0 0.00 0.00 0.00 84 1017.6
20141019094737 40 79 0.0 0.0 0.00 0.00 0.00 85 1017.6